STARLINK-1123 (44930 NORAD) Tracking and Keplerian Element Data

This shows tracking and keplerian element data for the satellite.

Feedback or suggestion? Click here.




ElementValue
Catalog44930
NameSTARLINK-1123
Epoch Orbit716
Epoch Day53.25001157
Epoch Year2020
RAAN176.1877
Inclination52.9994
Eccentricity0.0001659
Argument of Perigee77.8911
Mean Anonmoly323.9155
Mean Motion15.05543324
Decay Rate0.0011385
L11 44930U 20001S 20053.25001157 .00113850 00000-0 77153-2 0 9997
L22 44930 52.9994 176.1877 0001659 77.8911 323.9155 15.05543324 7165

Live tracking and technical data element details for STARLINK-1123 (NORAD 44930). STARLINK-1123 can be tracked NOW for your location showing map with azimuth and elevation plus other details from your city location.

Track the satellite on the map from your city or location and see movement details for azimuth, elevation, latitude, longitude, range, height, and movement on the map or in text.







IsCatalogInMostPopularTable: catalog: 44930, numindb: 14
Update: records affected: 1



GetName: 44930 STARLINK-1123

Hit Count: updated at: Mon, 24 Feb 2020 17:36:06 GMT